DW6455 Orivesi FI current weather conditions

sailwx.info

Wind from 290 at 1 knots gusting 6

Air temperature -0.0° C
Dewpoint -0.6° C

Last reported at 2017-Jan-23 00:42 UTC.
Time now 2017-Jan-23 08:31 UTC

Location: N 61°39' E 024°21'.
View on Google Maps.

See reports from other nearby stations

  
Tides and Currents Weather Stations Pressure Air Temp Water Temp Dewpoint Dewpoint Depression Visibility Wind Speed Wind Dir Waves Ship Positions
date/time (UTC)wind fromknots sea level pressurealtimeterstation pressurevisibilityair tempwater tempwave heightnotes
2017-Jan-23 00:42 290 1 gusting 6 -0.0
2017-Jan-23 00:37 290 1 gusting 6 -0.0
2017-Jan-23 00:32 290 1 gusting 5 -0.0
2017-Jan-23 00:27 292 1 gusting 5 -0.0
2017-Jan-23 00:22 269 0 gusting 5 -0.0
2017-Jan-23 00:17 278 0 gusting 5 -0.0
2017-Jan-23 00:12 277 0 gusting 7 -0.0
2017-Jan-23 00:07 279 1 gusting 7 -0.0
2017-Jan-23 00:02 254 1 gusting 7 -0.0
2017-Jan-22 23:57 269 0 gusting 7 -0.6
2017-Jan-22 23:52 257 -0.6
2017-Jan-22 23:47 294 -0.6
2017-Jan-22 23:42 282 -0.6
2017-Jan-22 23:37 287 -0.6
2017-Jan-22 23:32 287 -0.6
2017-Jan-22 23:27 287 -0.6
2017-Jan-22 23:22 286 -1.1
2017-Jan-22 23:17 294 -1.1
2017-Jan-22 23:12 294 -1.1
2017-Jan-22 23:07 293 -1.1
2017-Jan-22 23:02 297 -1.1
2017-Jan-22 22:57 297 -1.7
2017-Jan-22 22:52 244 0 gusting 5 -1.7
2017-Jan-22 22:47 244 0 gusting 4 -1.7
2017-Jan-22 22:42 225 0 gusting 4 -1.7
2017-Jan-22 22:37 225 0 gusting 0 -1.7
2017-Jan-22 22:32 241 -1.7
2017-Jan-22 22:27 242 -1.7
2017-Jan-22 22:22 241 -1.7
2017-Jan-22 22:17 241 -1.1
2017-Jan-22 22:12 242 -1.1
2017-Jan-22 22:07 242 -0.6
2017-Jan-22 22:02 241 -0.6
2017-Jan-22 21:57 242 -0.6
2017-Jan-22 21:52 242 -0.6
2017-Jan-22 21:47 242 -0.6
2017-Jan-22 21:42 242 -0.0
2017-Jan-22 21:37 242 0 gusting 1 -0.0
2017-Jan-22 21:32 242 -0.0
2017-Jan-22 21:27 241 -0.0
2017-Jan-22 21:22 242 0 gusting 3 0.6
2017-Jan-22 21:17 242 0 gusting 3 0.6
2017-Jan-22 21:12 238 0 gusting 5 0.6
2017-Jan-22 21:07 289 0 gusting 5 0.6
2017-Jan-22 21:02 290 1 gusting 2 0.6
2017-Jan-22 20:57 275 0 gusting 2 0.6
2017-Jan-22 20:52 278 -0.0
2017-Jan-22 20:47 248 0 gusting 3 -0.0
2017-Jan-22 20:42 294 0 gusting 3 -0.0
2017-Jan-22 20:37 242 -0.0
2017-Jan-22 20:32 254 -0.0
2017-Jan-22 20:27 219 0 gusting 6 -0.0
2017-Jan-22 20:22 218 0 gusting 6 -0.0
2017-Jan-22 20:17 218 0 gusting 6 -0.0
2017-Jan-22 20:12 290 0 gusting 2 -0.0
2017-Jan-22 20:07 275 0 gusting 2 -0.0
2017-Jan-22 20:02 294 0 gusting 4 -0.0
2017-Jan-22 19:57 275 0 gusting 4 -0.0
2017-Jan-22 19:52 274 0 gusting 4 -0.0
2017-Jan-22 19:47 298 0 gusting 4 -0.6
2017-Jan-22 19:42 290 0 gusting 4 -0.6
2017-Jan-22 19:37 292 0 gusting 4 -0.6
2017-Jan-22 19:32 291 0 gusting 5 -0.6
2017-Jan-22 19:27 284 0 gusting 5 -0.6
2017-Jan-22 19:22 284 0 gusting 8 -0.6
2017-Jan-22 19:17 284 0 gusting 8 -0.6
2017-Jan-22 19:12 294 0 gusting 5 -0.6
2017-Jan-22 19:07 338 0 gusting 5 -0.6
2017-Jan-22 19:02 280 0 gusting 3 -0.6
2017-Jan-22 18:57 280 0 gusting 3 -0.6
2017-Jan-22 18:52 280 0 gusting 5 -1.1
2017-Jan-22 18:47 281 0 gusting 5 -1.1
2017-Jan-22 18:42 285 0 gusting 5 -1.1
2017-Jan-22 18:37 279 -1.7
2017-Jan-22 18:32 273 -1.7
2017-Jan-22 18:27 292 0 gusting 5 -1.7
2017-Jan-22 18:22 294 0 gusting 2 -2.2
2017-Jan-22 18:17 238 -2.2
2017-Jan-22 18:12 238 -2.2
2017-Jan-22 18:07 242 -2.2
2017-Jan-22 18:02 333 -2.2
2017-Jan-22 17:57 339 -2.8
2017-Jan-22 17:52 198 0 gusting 6 -2.8
2017-Jan-22 17:47 207 -2.8
2017-Jan-22 17:42 281 -2.8
2017-Jan-22 17:37 281 -2.8
2017-Jan-22 17:32 284 -2.2
2017-Jan-22 17:27 284 -2.2
2017-Jan-22 17:22 284 -2.2
2017-Jan-22 17:17 284 -2.2
2017-Jan-22 17:12 284 -1.7
2017-Jan-22 17:07 284 -1.7
2017-Jan-22 17:02 284 -1.7
2017-Jan-22 16:57 284 -1.7
2017-Jan-22 16:52 284 -1.7
2017-Jan-22 16:47 284 -1.1
2017-Jan-22 16:42 284 -1.1
2017-Jan-22 16:37 284 -1.1
2017-Jan-22 16:32 284 -1.1
2017-Jan-22 16:27 284 0 gusting 2 -0.6
2017-Jan-22 16:22 284 1 gusting 2 -0.6
2017-Jan-22 16:17 284 1 gusting 2 -0.6
2017-Jan-22 16:12 284 1 gusting 1 -0.6
2017-Jan-22 16:07 285 0 gusting 1 -0.6
2017-Jan-22 16:02 284 -0.6
2017-Jan-22 15:57 285 -0.0
2017-Jan-22 15:52 284 -0.0
2017-Jan-22 15:47 284 0 gusting 6 -0.0
2017-Jan-22 15:42 284 0 gusting 3 -0.0
2017-Jan-22 15:37 281 0 gusting 3 0.6
2017-Jan-22 15:32 279 0 gusting 6 0.6
2017-Jan-22 15:27 279 0 gusting 6 0.6
2017-Jan-22 15:22 277 1 gusting 8 0.6
2017-Jan-22 15:17 277 1 gusting 8 0.6
2017-Jan-22 15:12 263 1 gusting 8 0.6
2017-Jan-22 15:07 299 0 gusting 8 0.6
2017-Jan-22 15:02 300 0 gusting 6 0.6
2017-Jan-22 14:57 313 0 gusting 6 0.6
2017-Jan-22 14:52 306 0 gusting 3 0.6
2017-Jan-22 14:47 324 0 gusting 3 0.6
2017-Jan-22 14:42 262 0.6
2017-Jan-22 14:37 276 0 gusting 3 0.6
2017-Jan-22 14:32 277 0 gusting 3 0.6
2017-Jan-22 14:27 279 0 gusting 3 0.6
2017-Jan-22 14:22 280 0 gusting 6 0.6
2017-Jan-22 14:17 267 0 gusting 6 -0.0
2017-Jan-22 14:12 267 0 gusting 6 -0.0
2017-Jan-22 14:07 281 0 gusting 6 -0.0
2017-Jan-22 14:02 296 0 gusting 2 -0.0
2017-Jan-22 13:57 255 0 gusting 2 -0.0
2017-Jan-22 13:52 256 -0.0
2017-Jan-22 13:47 279 0.6
2017-Jan-22 13:42 279 0.6
2017-Jan-22 13:37 279 0.6
2017-Jan-22 13:32 279 1.1
2017-Jan-22 13:27 278 1.1
2017-Jan-22 13:22 278 1.1
2017-Jan-22 13:17 279 1.7
2017-Jan-22 13:12 279 1.7
2017-Jan-22 13:07 278 1.7
2017-Jan-22 13:02 279 1.7
2017-Jan-22 12:57 278 1.7
2017-Jan-22 12:52 279 0 gusting 3 1.7
2017-Jan-22 12:47 278 0 gusting 3 1.7
2017-Jan-22 12:42 272 0 gusting 5 2.2
2017-Jan-22 12:37 274 0 gusting 5 2.2
2017-Jan-22 12:32 275 0 gusting 6 2.2
2017-Jan-22 12:27 274 0 gusting 6 2.2
2017-Jan-22 12:22 267 0 gusting 6 2.2
2017-Jan-22 12:17 266 0 gusting 6 2.2
2017-Jan-22 12:12 257 1 gusting 6 2.8
2017-Jan-22 12:07 291 0 gusting 6 2.8
2017-Jan-22 12:02 292 0 gusting 4 2.2
2017-Jan-22 11:57 303 0 gusting 4 2.2
2017-Jan-22 11:52 305 0 gusting 7 2.2
2017-Jan-22 11:47 289 1 gusting 7 2.2
2017-Jan-22 11:42 331 1 gusting 7 2.2
2017-Jan-22 11:37 284 1 gusting 7 2.2
2017-Jan-22 11:32 282 1 gusting 6 2.2
2017-Jan-22 11:27 291 1 gusting 6 2.2
2017-Jan-22 11:22 284 1 gusting 6 2.2
2017-Jan-22 11:17 279 1 gusting 6 2.2
2017-Jan-22 11:12 270 1 gusting 6 2.2
2017-Jan-22 11:07 288 1 gusting 10 2.8
2017-Jan-22 11:02 288 1 gusting 10 2.8
2017-Jan-22 10:57 294 1 gusting 10 2.8
2017-Jan-22 10:52 299 1 gusting 7 2.8
2017-Jan-22 10:47 302 2 gusting 7 2.8
2017-Jan-22 10:42 311 1 gusting 6 2.8
2017-Jan-22 10:37 263 2 gusting 6 2.8
2017-Jan-22 10:32 290 2 gusting 9 2.8
2017-Jan-22 10:27 296 2 gusting 9 2.8
2017-Jan-22 10:22 290 3 gusting 9 2.8
2017-Jan-22 10:17 319 3 gusting 9 2.8
2017-Jan-22 10:12 284 3 gusting 9 2.8
2017-Jan-22 10:07 275 2 gusting 9 2.8
2017-Jan-22 10:02 297 3 gusting 8 2.2
2017-Jan-22 09:57 286 3 gusting 8 2.2
2017-Jan-22 09:52 295 3 gusting 7 2.2
2017-Jan-22 09:47 287 2 gusting 7 2.2
2017-Jan-22 09:42 299 2 gusting 7 2.2
2017-Jan-22 09:37 303 1 gusting 7 2.2
2017-Jan-22 09:32 288 2 gusting 7 2.2
2017-Jan-22 09:27 295 2 gusting 7 2.2
2017-Jan-22 09:22 300 1 gusting 7 1.7
2017-Jan-22 09:17 297 1 gusting 7 1.7
2017-Jan-22 09:12 306 1 gusting 7 2.2
2017-Jan-22 09:07 298 2 gusting 7 2.2
2017-Jan-22 09:02 304 2 gusting 10 1.7
2017-Jan-22 08:57 302 2 gusting 10 1.7
2017-Jan-22 08:52 335 2 gusting 10 1.7
2017-Jan-22 08:47 308 2 gusting 10 1.7
2017-Jan-22 08:42 300 2 gusting 5 1.7
2017-Jan-22 08:37 286 1 gusting 5 1.7
2017-Jan-22 08:32 295 0 gusting 4 1.1
2017-Jan-22 08:27 296 0 gusting 4 1.1
2017-Jan-22 08:22 296 0 gusting 6 1.1
2017-Jan-22 08:17 267 0 gusting 6 1.1
2017-Jan-22 08:12 267 0 gusting 6 1.1
2017-Jan-22 08:07 288 0 gusting 6 1.1
2017-Jan-22 08:02 288 0 gusting 8 1.1
2017-Jan-22 07:57 300 1 gusting 8 1.7
2017-Jan-22 07:52 284 2 gusting 6 1.7
2017-Jan-22 07:47 325 2 gusting 6 1.7
2017-Jan-22 07:42 300 1 gusting 4 1.7
2017-Jan-22 07:37 307 0 gusting 4 1.1
2017-Jan-22 07:32 302 5 1.1
2017-Jan-22 01:02 339 5 gusting 11 1.7
2017-Jan-22 00:57 339 5 gusting 11 1.7
2017-Jan-22 00:52 339 5 gusting 13 1.7
2017-Jan-22 00:47 339 5 gusting 13 1.7
2017-Jan-22 00:42 292 4 gusting 10 1.7
2017-Jan-22 00:37 288 4 gusting 10 1.7
2017-Jan-22 00:32 294 4 gusting 8 1.7
2017-Jan-22 00:27 309 4 gusting 8 1.1
2017-Jan-22 00:22 310 3 gusting 11 1.1
2017-Jan-22 00:17 296 3 gusting 11 1.1
2017-Jan-22 00:12 300 3 gusting 12 1.1
2017-Jan-22 00:07 311 3 gusting 12 1.1
2017-Jan-22 00:02 305 2 gusting 12 1.1
2017-Jan-21 23:57 304 3 gusting 12 1.1
2017-Jan-21 23:52 257 3 gusting 8 0.6
2017-Jan-21 23:47 318 2 gusting 8 0.6
2017-Jan-21 23:42 281 2 gusting 9 0.6
2017-Jan-21 23:37 313 2 gusting 9 -0.0
2017-Jan-21 23:32 284 2 gusting 6 -0.6
2017-Jan-21 23:27 300 1 gusting 6 -0.6
2017-Jan-21 23:22 260 0 gusting 4 -1.1
2017-Jan-21 23:17 287 -1.7
2017-Jan-21 23:12 248 0 gusting 3 -1.7
2017-Jan-21 23:07 249 0 gusting 3 -1.7
2017-Jan-21 23:02 226 0 gusting 3 -1.7
2017-Jan-21 22:57 226 0 gusting 3 -1.7
2017-Jan-21 22:52 226 0 gusting 4 -1.7
2017-Jan-21 22:47 227 1 gusting 6 -1.7
2017-Jan-21 22:42 227 1 gusting 6 -1.7
2017-Jan-21 22:37 236 2 gusting 5 -1.7
2017-Jan-21 22:32 243 2 gusting 5 -1.7
2017-Jan-21 22:27 230 2 gusting 6 -2.2
2017-Jan-21 22:22 225 1 gusting 6 -2.2
2017-Jan-21 22:17 221 2 gusting 6 -2.2
2017-Jan-21 22:12 226 2 gusting 6 -2.2
2017-Jan-21 22:07 227 2 gusting 6 -2.2
2017-Jan-21 22:02 225 2 gusting 5 -2.2
2017-Jan-21 21:57 203 2 gusting 5 -2.2
2017-Jan-21 21:52 203 2 gusting 3 -2.8
2017-Jan-21 21:47 223 1 gusting 3 -2.8
2017-Jan-21 21:42 221 1 gusting 3 -2.8
2017-Jan-21 21:37 221 0 gusting 3 -2.8
2017-Jan-21 21:32 220 1 gusting 3 -2.8
2017-Jan-21 21:27 221 1 gusting 3 -3.3
2017-Jan-21 21:22 258 1 gusting 3 -3.3
2017-Jan-21 21:17 261 1 gusting 3 -3.3
2017-Jan-21 21:12 261 1 gusting 3 -3.3
2017-Jan-21 21:07 261 1 gusting 3 -3.3
2017-Jan-21 21:02 261 1 gusting 3 -3.3
2017-Jan-21 20:57 261 1 gusting 3 -3.3
2017-Jan-21 20:52 261 1 gusting 3 -3.9
2017-Jan-21 20:47 261 1 gusting 3 -3.9
2017-Jan-21 20:42 261 1 gusting 3 -3.9
2017-Jan-21 20:37 261 1 gusting 3 -3.9
2017-Jan-21 20:32 261 1 gusting 3 -4.4
2017-Jan-21 20:27 261 1 gusting 3 -4.4
2017-Jan-21 20:22 261 1 gusting 3 -4.4
2017-Jan-21 20:17 263 1 gusting 3 -4.4
2017-Jan-21 20:12 263 1 gusting 6 -4.4
2017-Jan-21 20:07 263 1 gusting 6 -5.0
2017-Jan-21 20:02 263 0 gusting 6 -5.0
2017-Jan-21 19:57 263 1 gusting 6 -5.0
2017-Jan-21 19:52 268 2 gusting 5 -5.0
2017-Jan-21 19:47 273 1 gusting 5 -5.0
2017-Jan-21 19:42 293 1 gusting 3 -5.6
2017-Jan-21 19:37 255 1 gusting 3 -6.1
2017-Jan-21 19:32 256 1 gusting 3 -6.1
2017-Jan-21 19:27 255 1 gusting 2 -6.7
2017-Jan-21 19:22 255 0 gusting 2 -6.7
2017-Jan-21 19:17 256 0 gusting 1 -6.7
2017-Jan-21 19:12 255 0 gusting 1 -7.2
2017-Jan-21 19:07 255 -7.2
2017-Jan-21 19:02 255 0 gusting 2 -7.2
2017-Jan-21 18:57 256 0 gusting 2 -7.2
2017-Jan-21 18:52 256 0 gusting 2 -7.8
2017-Jan-21 18:47 256 0 gusting 2 -7.8
2017-Jan-21 18:42 256 0 gusting 2 -7.8
2017-Jan-21 18:37 255 0 gusting 3 -7.8
2017-Jan-21 18:32 255 0 gusting 3 -7.8
2017-Jan-21 18:27 256 0 gusting 5 -7.8
2017-Jan-21 18:22 259 0 gusting 5 -7.8
2017-Jan-21 18:17 219 0 gusting 5 -7.2
2017-Jan-21 18:12 218 0 gusting 5 -7.2
2017-Jan-21 18:07 219 1 gusting 2 -7.2
2017-Jan-21 18:02 236 0 gusting 2 -7.2
2017-Jan-21 17:57 235 0 gusting 2 -7.2
2017-Jan-21 17:52 236 -7.2
2017-Jan-21 17:47 235 0 gusting 2 -7.2
2017-Jan-21 17:42 235 0 gusting 2 -7.2
2017-Jan-21 17:37 236 0 gusting 2 -7.2
2017-Jan-21 17:32 236 0 gusting 2 -7.2
2017-Jan-21 17:27 236 0 gusting 1 -7.2
2017-Jan-21 17:22 236 0 gusting 1 -7.8
2017-Jan-21 17:17 262 0 gusting 6 -7.8
2017-Jan-21 17:12 261 -7.8
2017-Jan-21 17:07 264 -7.2
2017-Jan-21 17:02 283 -7.2
2017-Jan-21 16:57 283 -7.2
2017-Jan-21 16:52 306 -7.2
2017-Jan-21 16:47 307 -7.2
2017-Jan-21 16:42 307 -7.2
2017-Jan-21 16:37 306 -7.2
2017-Jan-21 16:32 307 -7.2
2017-Jan-21 16:27 307 -7.2
2017-Jan-21 16:22 307 -6.7
2017-Jan-21 16:17 307 -6.7
2017-Jan-21 16:12 307 -6.7
2017-Jan-21 16:07 307 0 gusting 1 -6.7
2017-Jan-21 16:02 307 0 -6.7
2017-Jan-21 15:57 307 -6.1
2017-Jan-21 15:52 306 -6.1
2017-Jan-21 15:47 306 -6.1
2017-Jan-21 15:42 306 -6.1
2017-Jan-21 15:37 306 -6.1
2017-Jan-21 15:32 307 -6.1
2017-Jan-21 15:27 307 0 gusting 2 -5.6
2017-Jan-21 15:22 307 0 gusting 2 -5.6
2017-Jan-21 15:17 307 0 gusting 2 -5.6
2017-Jan-21 15:12 307 0 gusting 3 -5.6
2017-Jan-21 15:07 307 0 gusting 3 -5.0
2017-Jan-21 15:02 306 0 gusting 1 -5.0
2017-Jan-21 14:57 305 -5.0
2017-Jan-21 14:52 305 -4.4
2017-Jan-21 14:47 306 -4.4
2017-Jan-21 14:42 305 -4.4
2017-Jan-21 14:37 306 -3.9
2017-Jan-21 14:32 306 -3.9
2017-Jan-21 14:27 305 -3.3
2017-Jan-21 14:22 306 -3.3
2017-Jan-21 14:17 306 -3.3
2017-Jan-21 14:12 306 -2.8
2017-Jan-21 14:07 306 0 gusting 2 -2.8
2017-Jan-21 14:02 306 0 gusting 3 -2.8
2017-Jan-21 13:57 305 1 gusting 3 -2.8
2017-Jan-21 13:52 306 1 gusting 3 -2.8
2017-Jan-21 13:47 319 1 gusting 3 -2.8
2017-Jan-21 13:42 329 0 gusting 0 -2.8
2017-Jan-21 13:37 338 -2.8
2017-Jan-21 13:32 338 -2.8
2017-Jan-21 13:27 338 -2.2
2017-Jan-21 13:22 338 -2.2
2017-Jan-21 13:17 338 -2.2
2017-Jan-21 13:12 338 -1.7
2017-Jan-21 13:07 338 -1.7
2017-Jan-21 13:02 338 -1.7
2017-Jan-21 12:57 338 0 gusting 5 -1.7
2017-Jan-21 12:52 338 0 gusting 6 -1.7
2017-Jan-21 12:47 338 1 gusting 6 -1.1
2017-Jan-21 12:42 338 1 gusting 6 -1.1
2017-Jan-21 12:37 343 2 gusting 6 -1.1
2017-Jan-21 12:32 343 3 gusting 8 -1.1
2017-Jan-21 12:27 355 3 gusting 8 -1.1
2017-Jan-21 12:22 349 3 gusting 8 -1.1
2017-Jan-21 12:17 336 4 gusting 8 -1.1
2017-Jan-21 12:12 351 4 gusting 8 -0.6
2017-Jan-21 12:07 338 4 gusting 8 -0.6
2017-Jan-21 12:02 348 4 gusting 9 -0.6
2017-Jan-21 11:57 355 4 gusting 9 -0.6
2017-Jan-21 11:52 005 5 gusting 9 -0.6
2017-Jan-21 11:47 344 5 gusting 9 -0.6
2017-Jan-21 11:42 005 5 gusting 12 -0.6
2017-Jan-21 11:37 348 5 gusting 12 -0.6
2017-Jan-21 11:32 332 5 gusting 13 -0.6
2017-Jan-21 11:27 348 5 gusting 13 -0.6
2017-Jan-21 11:22 345 6 gusting 13 -0.6
2017-Jan-21 11:17 005 6 gusting 13 -0.6
2017-Jan-21 11:12 350 6 gusting 13 -0.6
2017-Jan-21 11:07 355 7 gusting 12 -0.6
2017-Jan-21 11:02 347 7 gusting 12 -0.6
2017-Jan-21 10:57 005 6 gusting 12 -0.6
2017-Jan-21 10:52 339 6 gusting 12 -0.6
2017-Jan-21 10:47 337 6 gusting 12 -0.6
2017-Jan-21 10:42 355 6 gusting 11 -0.6
2017-Jan-21 10:37 331 6 gusting 11 -1.1
2017-Jan-21 10:32 326 6 gusting 11 -1.1
2017-Jan-21 10:27 333 5 gusting 11 -1.1
2017-Jan-21 10:22 342 4 gusting 8 -1.1
2017-Jan-21 10:17 336 3 gusting 8 -1.1
2017-Jan-21 10:12 355 3 gusting 8 -1.1
2017-Jan-21 10:07 331 4 gusting 8 -1.1
2017-Jan-21 10:02 342 3 gusting 9 -1.7
2017-Jan-21 09:57 338 4 gusting 9 -1.7
2017-Jan-21 09:52 341 3 gusting 5 -1.7
2017-Jan-21 09:47 333 2 gusting 5 -1.7
2017-Jan-21 09:42 340 2 gusting 6 -1.7
2017-Jan-21 09:37 326 2 gusting 6 -1.7
2017-Jan-21 09:32 336 2 gusting 7 -1.7
2017-Jan-21 09:27 346 2 gusting 7 -1.7
2017-Jan-21 09:22 -1.7
2017-Jan-21 09:17 329 3 gusting 7 -1.7
2017-Jan-21 09:12 336 3 gusting 8 -1.7
2017-Jan-21 09:07 328 2 gusting 8 -1.7
2017-Jan-21 09:02 316 2 gusting 8 -1.7
2017-Jan-21 08:57 322 2 gusting 8 -1.7
2017-Jan-21 08:52 333 2 gusting 8 -1.7
2017-Jan-21 08:47 319 1 gusting 8 -1.7
2017-Jan-21 08:42 344 0 gusting 7 -2.2
2017-Jan-21 08:37 324 1 gusting 7 -2.2
2017-Jan-21 08:32 306 2 gusting 6 -2.2
2017-Jan-21 08:27 323 2 gusting 6 -2.2
2017-Jan-21 08:22 292 1 gusting 7 -2.2
2017-Jan-21 08:17 334 1 gusting 7 -2.2
2017-Jan-21 08:12 314 2 gusting 8 -2.2
2017-Jan-21 08:07 338 2 gusting 8 -2.2
2017-Jan-21 08:02 329 2 gusting 8 -2.2